St. Cloud, MN

12:43 PM CST on November 21, 2019 (GMT -0600)
Saint Cloud Regional

Weather History for KSTC - October, 2019

Change the Weather History Date:

Monday, October 21, 2019

  Actual Average Record
Temperature  
Mean Temperature 48 °F 44 °F  
Max Temperature 54 °F 54 °F 87 °F (1947)
Min Temperature 41 °F 33 °F 11 °F (1913)
Degree Days  
Heating Degree Days 18 21  
Month to date heating degree days 374 363  
Since 1 July heating degree days 549 649  
Cooling Degree Days 0 0  
Month to date cooling degree days 0 0  
Year to date cooling degree days 452 463  
Moisture  
Dew Point 42 °F    
Average Humidity 87    
Maximum Humidity 97    
Minimum Humidity 57    
Precipitation  
Precipitation 1.32 in 0.07 in 0.83 in (2009)
Month to date precipitation 3.74 1.86  
Year to date precipitation 38.63 24.90  
Sea Level Pressure  
Sea Level Pressure 29.28 in    
Wind  
Wind Speed 10 mph ()    
Max Wind Speed 25 mph    
Max Gust Speed 41 mph    
Visibility 7.4 miles    
Events Rain    
T = Trace of Precipitation, MM = Missing Value Source: Averaged Metar Reports

Daily Weather History Graph

Daily Weather History Graph

Search for Another Location

Airport or City:

Astronomy

Oct. 21, 2019 Rise Set
Actual Time 7:40 AM CDT 6:20 PM CDT
Civil Twilight 7:10 AM CDT 6:50 PM CDT
Nautical Twilight 6:35 AM CDT 7:25 PM CDT
Astronomical Twilight 6:01 AM CDT 7:59 PM CDT
Moon No Moon Rise 3:09 PM CDT
Length of Visible Light 11h 40m
Length of Day
10h 40m
Waning Gibbous, 48% of the Moon is Illuminated
Oct 21
Waning Gibbous
Oct 27
New
Nov 4
First Quarter
Nov 12
Full
Nov 19
Last Quarter

Hourly Weather History & Observations

Time (CDT) Temp. Windchill Dew Point Humidity Pressure Visibility Wind Dir Wind Speed Gust Speed Precip Events Conditions
12:53 AM 54.0 °F - 39.9 °F 59% 29.74 in 10.0 mi ESE 6.9 mph - N/A   Overcast
1:53 AM 53.1 °F - 39.9 °F 61% 29.70 in 10.0 mi East 5.8 mph - N/A   Scattered Clouds
2:53 AM 53.1 °F - 39.0 °F 59% 29.66 in 10.0 mi East 12.7 mph 20.7 mph N/A   Overcast
3:53 AM 53.1 °F - 39.9 °F 61% 29.64 in 10.0 mi East 10.4 mph 18.4 mph N/A   Overcast
4:53 AM 54.0 °F - 39.0 °F 57% 29.60 in 10.0 mi East 9.2 mph 26.5 mph N/A   Overcast
5:53 AM 53.1 °F - 39.0 °F 59% 29.58 in 10.0 mi East 12.7 mph 24.2 mph N/A   Overcast
6:53 AM 50.0 °F - 39.9 °F 68% 29.55 in 10.0 mi East 11.5 mph 25.3 mph 0.01 in Rain Light Rain
7:53 AM 46.9 °F - 42.1 °F 83% 29.51 in 7.0 mi ENE 6.9 mph - 0.06 in Rain Rain
8:53 AM 45.0 °F 38.9 °F 41.0 °F 86% 29.47 in 6.0 mi NE 12.7 mph 23.0 mph 0.13 in Rain Light Rain
9:53 AM 44.1 °F 37.4 °F 41.0 °F 89% 29.42 in 9.0 mi NE 13.8 mph 26.5 mph 0.09 in Rain Light Rain
10:22 AM 44.1 °F 36.8 °F 41.0 °F 89% 29.37 in 3.0 mi NE 16.1 mph 25.3 mph 0.06 in Rain Rain
10:53 AM 44.1 °F 37.1 °F 42.1 °F 93% 29.38 in 5.0 mi NE 15.0 mph 24.2 mph 0.15 in Rain Light Rain
11:53 AM 45.0 °F 39.7 °F 43.0 °F 93% 29.33 in 4.0 mi NNE 10.4 mph 19.6 mph 0.17 in Rain Rain
12:04 PM 45.0 °F 39.7 °F 44.1 °F 97% 29.28 in 4.0 mi NNE 10.4 mph 20.7 mph 0.03 in Rain Rain
12:53 PM 46.0 °F 40.6 °F 44.1 °F 93% 29.26 in 5.0 mi NNE 11.5 mph 20.7 mph 0.13 in Rain Light Rain
1:04 PM 46.0 °F 41.4 °F 44.1 °F 93% 29.21 in 6.0 mi NNE 9.2 mph 23.0 mph 0.01 in Rain Light Rain
1:53 PM 46.0 °F 41.4 °F 44.1 °F 93% 29.20 in 4.0 mi North 9.2 mph 17.3 mph 0.08 in Rain Rain
2:05 PM 46.0 °F 41.0 °F 44.1 °F 93% 29.15 in 4.0 mi NNE 10.4 mph 17.3 mph 0.03 in Rain Rain
2:38 PM 46.9 °F - 44.1 °F 90% 29.12 in 5.0 mi North 15.0 mph 25.3 mph 0.08 in Rain Light Rain
2:49 PM 46.4 °F 39.2 °F 44.6 °F 93% 29.11 in 10.0 mi North 18.4 mph 28.8 mph 0.09 in Rain Light Rain
2:53 PM 46.9 °F - 44.1 °F 90% 29.14 in 10.0 mi North 17.3 mph 28.8 mph 0.09 in Rain Light Rain
3:07 PM 46.9 °F - 45.0 °F 93% 29.11 in 10.0 mi NNE 11.5 mph 19.6 mph 0.00 in Rain Light Rain
3:43 PM 46.4 °F 41.5 °F 44.6 °F 93% 29.11 in 2.5 mi NNE 10.4 mph - N/A Rain Heavy Rain
3:53 PM 46.9 °F - 45.0 °F 93% 29.15 in 3.0 mi NNE 9.2 mph 21.9 mph 0.12 in Rain Rain
4:15 PM 46.9 °F - 45.0 °F 93% 29.11 in 7.0 mi North 10.4 mph - 0.05 in Rain Light Rain
4:29 PM 46.4 °F 41.9 °F 44.6 °F 93% 29.11 in 5.0 mi NNE 9.2 mph - N/A Rain Light Rain
4:53 PM 46.9 °F - 45.0 °F 93% 29.14 in 4.0 mi North 9.2 mph 18.4 mph 0.09 in Rain Rain
5:01 PM 46.9 °F - 45.0 °F 93% 29.11 in 3.0 mi NNE 8.1 mph - 0.03 in Rain Rain
5:11 PM 46.9 °F - 45.0 °F 93% 29.11 in 4.0 mi North 9.2 mph - 0.05 in Rain Light Rain
5:38 PM 46.9 °F - 45.0 °F 93% 29.11 in 6.0 mi North 8.1 mph - 0.10 in Rain Rain
5:53 PM 46.9 °F - 45.0 °F 93% 29.14 in 10.0 mi North 10.4 mph - 0.10 in Rain Light Rain
6:16 PM 46.0 °F 42.5 °F 45.0 °F 96% 29.11 in 10.0 mi North 6.9 mph - 0.01 in   Overcast
6:53 PM 46.9 °F - 45.0 °F 93% 29.16 in 10.0 mi North 8.1 mph - 0.01 in Rain Light Rain
7:42 PM 46.9 °F - 45.0 °F 93% 29.14 in 10.0 mi North 9.2 mph 18.4 mph 0.01 in Rain Light Rain
7:53 PM 46.0 °F 40.2 °F 44.1 °F 93% 29.18 in 9.0 mi North 12.7 mph 24.2 mph 0.01 in Rain Light Rain
8:01 PM 46.0 °F 39.9 °F 44.1 °F 93% 29.14 in 8.0 mi North 13.8 mph 24.2 mph 0.01 in Rain Light Rain
8:43 PM 44.1 °F 35.7 °F 41.0 °F 89% 29.16 in 6.0 mi NNW 20.7 mph 32.2 mph 0.04 in Rain Light Rain
8:53 PM 43.0 °F 34.0 °F 39.9 °F 89% 29.21 in 7.0 mi NNW 21.9 mph 35.7 mph 0.04 in Rain Light Rain
9:53 PM 42.1 °F 33.6 °F 39.0 °F 89% 29.24 in 10.0 mi NNW 18.4 mph 35.7 mph 0.01 in Rain Light Rain
10:53 PM 41.0 °F 31.4 °F 37.9 °F 89% 29.27 in 10.0 mi NNW 21.9 mph 32.2 mph 0.02 in Rain Light Rain
11:00 PM 41.0 °F 31.9 °F 37.9 °F 89% 29.23 in 10.0 mi NNW 19.6 mph 36.8 mph 0.00 in Rain Light Rain
11:31 PM 41.0 °F 32.5 °F 37.9 °F 89% 29.24 in 10.0 mi NNW 17.3 mph 33.4 mph 0.00 in   Overcast
11:51 PM 41.0 °F 31.9 °F 37.4 °F 87% 29.25 in 10.0 mi NNW 19.6 mph 32.2 mph 0.00 in   Overcast
11:53 PM 41.0 °F 31.9 °F 37.9 °F 89% 29.29 in 10.0 mi NNW 19.6 mph 32.2 mph 0.00 in   Overcast